Cedar Bluff, VA

8:35 AM EST on December 04, 2016 (GMT -0500)
Tazewell County

Weather History for KJFZ - February, 2013

Change the Weather History Date:

Sunday, February 3, 2013

  Actual Average (KBLF) Record (KBLF)
Temperature  
Mean Temperature 26 °F 35 °F  
Max Temperature 30 °F 43 °F 67 °F (1989)
Min Temperature 21 °F 27 °F 0 °F (1965)
Degree Days  
Heating Degree Days 38 30  
Month to date heating degree days 90  
Since 1 July heating degree days 2810  
Cooling Degree Days 0 0  
Month to date cooling degree days 0  
Year to date cooling degree days 0  
Moisture  
Dew Point 26 °F    
Average Humidity 99    
Maximum Humidity 100    
Minimum Humidity 93    
Precipitation  
Precipitation 0.00 in 0.10 in 0.86 in (2014)
Month to date precipitation 0.29  
Year to date precipitation 3.19  
Snow  
Snow 0.00 in - - ()
Month to date snowfall  
Since 1 July snowfall  
Snow Depth -    
Sea Level Pressure  
Sea Level Pressure 29.89 in    
Wind  
Wind Speed 8 mph (West)    
Max Wind Speed 15 mph    
Max Gust Speed 24 mph    
Visibility 6 miles    
Events      
T = Trace of Precipitation, MM = Missing Value Source: NWS Daily Summary

Daily Weather History Graph

Daily Weather History Graph

Search for Another Location

Airport or City:

Trip Planner

Search our weather history database for the weather conditions in past years. The results will help you decide how hot, cold, wet, or windy it might be!

Date:

Astronomy

Feb. 03, 2013 Rise Set
Actual Time 7:27 AM EST 5:54 PM EST
Civil Twilight 7:00 AM EST 6:21 PM EST
Nautical Twilight 6:29 AM EST 6:52 PM EST
Astronomical Twilight 5:59 AM EST 7:23 PM EST
Moon 12:53 AM EST (2/3) 11:31 AM EST (2/3)
Length of Visible Light 11h 21m
Length of Day
10h 26m
Waning Gibbous, 49% of the Moon is Illuminated
Feb 3
Waning Gibbous
Feb 10
New
Feb 17
First Quarter
Feb 25
Full
Mar 4
Last Quarter

Hourly Weather History & Observations

Time (EST) Temp. Windchill Dew Point Humidity Pressure Visibility Wind Dir Wind Speed Gust Speed Precip Events Conditions
12:15 AM 26.6 °F 18.2 °F 26.6 °F 100% 29.94 in 3.0 mi WSW 8.1 mph - N/A   Unknown
12:35 AM 26.6 °F 17.5 °F 26.6 °F 100% 29.93 in 3.0 mi WSW 9.2 mph - N/A   Unknown
12:55 AM 26.6 °F 18.2 °F 26.6 °F 100% 29.93 in 4.0 mi WSW 8.1 mph - N/A   Clear
1:15 AM 26.6 °F 20.0 °F 26.6 °F 100% 29.91 in 5.0 mi WSW 5.8 mph - N/A   Clear
1:35 AM 26.6 °F 19.1 °F 26.6 °F 100% 29.92 in 4.0 mi WSW 6.9 mph - N/A   Clear
1:55 AM 26.6 °F 20.0 °F 26.6 °F 100% 29.91 in 4.0 mi WSW 5.8 mph - N/A   Clear
2:35 AM 26.6 °F 16.2 °F 26.6 °F 100% 29.89 in 1.5 mi West 11.5 mph - N/A   Clear
2:55 AM 26.6 °F 16.2 °F 26.6 °F 100% 29.89 in 1.8 mi West 11.5 mph - N/A   Clear
3:15 AM 26.6 °F 16.2 °F 24.8 °F 93% 29.90 in 3.0 mi WNW 11.5 mph - N/A   Partly Cloudy
3:35 AM 24.8 °F 14.6 °F 24.8 °F 100% 29.89 in 3.0 mi West 10.4 mph - N/A   Unknown
3:55 AM 24.8 °F 16.9 °F 24.8 °F 100% 29.88 in 4.0 mi WNW 6.9 mph - N/A   Clear
4:15 AM 24.8 °F 19.1 °F 24.8 °F 100% 29.89 in 8.0 mi West 4.6 mph - N/A   Unknown
4:35 AM 24.8 °F 19.1 °F 24.8 °F 100% 29.88 in 10.0 mi WSW 4.6 mph - N/A   Partly Cloudy
4:55 AM 24.8 °F 14.6 °F 24.8 °F 100% 29.88 in 10.0 mi West 10.4 mph - N/A   Unknown
5:15 AM 24.8 °F 17.9 °F 24.8 °F 100% 29.87 in 10.0 mi West 5.8 mph - N/A   Partly Cloudy
5:35 AM 24.8 °F 16.1 °F 24.8 °F 100% 29.88 in 10.0 mi West 8.1 mph - N/A   Partly Cloudy
5:55 AM 24.8 °F 16.1 °F 24.8 °F 100% 29.87 in 10.0 mi West 8.1 mph - N/A   Mostly Cloudy
6:15 AM 24.8 °F 16.9 °F 24.8 °F 100% 29.86 in 10.0 mi WSW 6.9 mph - N/A   Scattered Clouds
6:35 AM 24.8 °F 16.9 °F 24.8 °F 100% 29.86 in 10.0 mi SW 6.9 mph - N/A   Scattered Clouds
6:55 AM 24.8 °F 17.9 °F 24.8 °F 100% 29.86 in 10.0 mi SW 5.8 mph - N/A   Partly Cloudy
7:15 AM 24.8 °F 16.9 °F 24.8 °F 100% 29.85 in 10.0 mi WSW 6.9 mph - N/A   Unknown
7:35 AM 24.8 °F 16.1 °F 24.8 °F 100% 29.85 in 10.0 mi WSW 8.1 mph - N/A   Unknown
7:55 AM 24.8 °F 17.9 °F 24.8 °F 100% 29.85 in 10.0 mi Variable 5.8 mph - N/A   Unknown
8:15 AM 24.8 °F 17.9 °F 24.8 °F 100% 29.85 in 6.0 mi WSW 5.8 mph - N/A   Clear
8:35 AM 26.6 °F 18.2 °F 26.6 °F 100% 29.85 in 1.2 mi WSW 8.1 mph - N/A   Clear
8:55 AM 26.6 °F 20.0 °F 26.6 °F 100% 29.84 in 1.5 mi WSW 5.8 mph - N/A   Clear
9:15 AM 26.6 °F 18.2 °F 26.6 °F 100% 29.85 in 2.0 mi West 8.1 mph - N/A   Clear
9:35 AM 26.6 °F 18.2 °F 26.6 °F 100% 29.85 in 9.0 mi WSW 8.1 mph - N/A   Clear
9:55 AM 26.6 °F 19.1 °F 26.6 °F 100% 29.85 in 9.0 mi WSW 6.9 mph - N/A   Clear
10:15 AM 26.6 °F 19.1 °F 26.6 °F 100% 29.84 in 10.0 mi Variable 6.9 mph - N/A   Unknown
10:35 AM 28.4 °F 22.2 °F 28.4 °F 100% 29.83 in 10.0 mi WSW 5.8 mph - N/A   Unknown
10:55 AM 26.6 °F 19.1 °F 26.6 °F 100% 29.84 in 3.0 mi Variable 6.9 mph - N/A   Unknown
11:15 AM 28.4 °F 21.2 °F 28.4 °F 100% 29.84 in 4.0 mi SW 6.9 mph - N/A   Unknown
11:55 AM 28.4 °F 21.2 °F 28.4 °F 100% 29.83 in 3.0 mi Variable 6.9 mph - N/A   Unknown
12:15 PM 28.4 °F 21.2 °F 28.4 °F 100% 29.83 in 3.0 mi West 6.9 mph - N/A   Unknown
12:35 PM 28.4 °F 19.7 °F 28.4 °F 100% 29.83 in 2.0 mi WSW 9.2 mph - N/A   Unknown
12:55 PM 28.4 °F 21.2 °F 28.4 °F 100% 29.82 in 5.0 mi Variable 6.9 mph - N/A   Clear
1:15 PM 28.4 °F 19.7 °F 28.4 °F 100% 29.82 in 7.0 mi West 9.2 mph - N/A   Unknown
1:35 PM 28.4 °F 19.1 °F 28.4 °F 100% 29.83 in 7.0 mi West 10.4 mph - N/A   Unknown
1:55 PM 30.2 °F 21.3 °F 28.4 °F 93% 29.83 in 10.0 mi West 10.4 mph - N/A   Partly Cloudy
2:15 PM 28.4 °F 19.1 °F 26.6 °F 93% 29.84 in 10.0 mi West 10.4 mph - N/A   Scattered Clouds
2:35 PM 28.4 °F 17.0 °F 26.6 °F 93% 29.84 in 9.0 mi West 15.0 mph - N/A   Partly Cloudy
2:55 PM 28.4 °F 18.5 °F 26.6 °F 93% 29.85 in 2.5 mi West 11.5 mph - N/A   Partly Cloudy
3:15 PM 28.4 °F 19.7 °F 28.4 °F 100% 29.86 in 7.0 mi West 9.2 mph - N/A   Unknown
3:55 PM 26.6 °F 20.0 °F 26.6 °F 100% 29.89 in 1.8 mi Variable 5.8 mph - N/A   Unknown
4:15 PM 26.6 °F 15.7 °F 26.6 °F 100% 29.90 in 2.5 mi West 12.7 mph - N/A   Unknown
4:35 PM 26.6 °F 17.5 °F 26.6 °F 100% 29.90 in 2.5 mi West 9.2 mph - N/A   Unknown
4:55 PM 26.6 °F 17.5 °F 26.6 °F 100% 29.90 in 9.0 mi WNW 9.2 mph - N/A   Unknown
5:15 PM 26.6 °F 19.1 °F 26.6 °F 100% 29.91 in 3.0 mi WNW 6.9 mph - N/A   Unknown
5:55 PM 26.6 °F 16.8 °F 26.6 °F 100% 29.92 in 4.0 mi WNW 10.4 mph - N/A   Unknown
6:15 PM 26.6 °F 17.5 °F 26.6 °F 100% 29.92 in 4.0 mi WNW 9.2 mph - N/A   Unknown
6:35 PM 26.6 °F 16.8 °F 24.8 °F 93% 29.94 in 3.0 mi WNW 10.4 mph - N/A   Unknown
6:55 PM 24.8 °F 14.0 °F 24.8 °F 100% 29.95 in 4.0 mi West 11.5 mph - N/A   Unknown
7:15 PM 24.8 °F 14.6 °F 24.8 °F 100% 29.95 in 7.0 mi West 10.4 mph - N/A   Unknown
7:35 PM 24.8 °F 14.6 °F 24.8 °F 100% 29.97 in 8.0 mi West 10.4 mph - N/A   Unknown
7:55 PM 24.8 °F 14.0 °F 24.8 °F 100% 29.98 in 9.0 mi West 11.5 mph - N/A   Unknown
8:35 PM 24.8 °F 12.4 °F 24.8 °F 100% 29.99 in 10.0 mi West 15.0 mph 24.2 mph N/A   Unknown
8:55 PM 24.8 °F 14.6 °F 24.8 °F 100% 29.99 in 10.0 mi WNW 10.4 mph - N/A   Unknown
9:15 PM 24.8 °F 14.6 °F 23.0 °F 93% 29.98 in 10.0 mi West 10.4 mph - N/A   Unknown
9:35 PM 24.8 °F 15.3 °F 24.8 °F 100% 30.00 in 7.0 mi West 9.2 mph - N/A   Unknown
9:55 PM 24.8 °F 12.9 °F 24.8 °F 100% 30.01 in 9.0 mi WNW 13.8 mph - N/A   Unknown
10:15 PM 23.0 °F 11.1 °F 23.0 °F 100% 30.00 in 6.0 mi WNW 12.7 mph - N/A   Unknown
10:35 PM 23.0 °F 12.4 °F 21.2 °F 93% 30.01 in 9.0 mi West 10.4 mph - N/A   Unknown
10:55 PM 23.0 °F 12.4 °F 21.2 °F 93% 30.02 in 10.0 mi WNW 10.4 mph - N/A   Partly Cloudy
11:55 PM 21.2 °F 9.5 °F 19.4 °F 93% 30.03 in 10.0 mi WNW 11.5 mph - N/A   Mostly Cloudy